Location: Tr�vern
(48.0333°N, 4.6000°W)
Time: 19:14:59
(UTC+00:00)

Okean 1-7 - Pass Details

Date: 14 July 2020
Orbit: 591 x 618 km, 82.5° (Epoch: 12 August)

Event Time Altitude Azimuth Distance (km) Brightness Sun altitude
Rises 01:11:05 0° 354° (N) 2,906 7.9 -19.6°
Reaches altitude 10° 01:13:23 10° 0° (N) 1,995 6.8 -19.5°
Maximum altitude 01:17:41 49° 76° (ENE) 798 3.7 -19.3°
Enters shadow 01:19:47 27° 138° (SE) 1,197 4.2 -19.2°
